• en Belgique
  • Liste des pays
  • À 7 jours
  • Température de l'eau
  • Carte satellitaire
  • Carte météo
  • Widgets météo
  • user-avatar
    Se connecter

    Météo par heure à Polyana

    Ce jour, 14 Novembre, Mercredi

    Heure Température Précipitation Vent Pression Humidité
    00:00 -2°C° 0.4 mm 5 m/s 752 mmHg 75%
    01:00 -2°C° 0.4 mm 5 m/s 752 mmHg 73%
    02:00 -2°C° 0.4 mm 5 m/s 752 mmHg 70%
    03:00 -2°C° 0.4 mm 5 m/s 752 mmHg 76%
    04:00 -4°C° 0.4 mm 5 m/s 751 mmHg 82%
    05:00 -3°C° 0.4 mm 4 m/s 751 mmHg 87%
    06:00 -3°C° 0.6 mm 4 m/s 751 mmHg 87%
    07:00 -3°C° 0.6 mm 4 m/s 751 mmHg 88%
    08:00 -3°C° 0.6 mm 4 m/s 751 mmHg 88%
    09:00 -3°C° 0.5 mm 4 m/s 751 mmHg 89%
    10:00 -2°C° 0.5 mm 3 m/s 751 mmHg 89%
    11:00 -4°C° 0.5 mm 3 m/s 752 mmHg 90%
    12:00 -4°C° 0.5 mm 3 m/s 752 mmHg 90%
    13:00 -2°C° 0.5 mm 3 m/s 752 mmHg 90%
    14:00 -2°C° 0.5 mm 3 m/s 752 mmHg 90%
    15:00 -3°C° 0.3 mm 2 m/s 752 mmHg 90%
    16:00 -3°C° 0.3 mm 2 m/s 753 mmHg 90%
    17:00 -3°C° 0.3 mm 2 m/s 753 mmHg 91%
    18:00 -3°C° 0.2 mm 2 m/s 753 mmHg 91%
    19:00 -3°C° 0.2 mm 2 m/s 754 mmHg 91%
    20:00 -1°C° 0.2 mm 1 m/s 754 mmHg 91%
    21:00 -1°C° 0.2 mm 1 m/s 754 mmHg 90%
    22:00 -1°C° 0.2 mm 1 m/s 755 mmHg 90%
    23:00 -1°C° 0.2 mm 1 m/s 755 mmHg 90%

    Demain, 15 Novembre, Jeudi

    Heure Température Précipitation Vent Pression Humidité
    00:00 -1°C° 0.2 mm 1 m/s 756 mmHg 91%
    01:00 -1°C° 0.2 mm 1 m/s 756 mmHg 91%
    02:00 -1°C° 0.2 mm 1 m/s 756 mmHg 91%
    03:00 -1°C° 0.1 mm 1 m/s 757 mmHg 91%
    04:00 -2°C° 0.1 mm 1 m/s 757 mmHg 91%
    05:00 -2°C° 0.1 mm 1 m/s 757 mmHg 91%
    06:00 -2°C° 0.1 mm 1 m/s 758 mmHg 91%
    07:00 -2°C° 0.1 mm 1 m/s 758 mmHg 91%
    08:00 -2°C° 0.1 mm 1 m/s 759 mmHg 91%
    09:00 -1°C° 0 mm 1 m/s 759 mmHg 89%
    10:00 -1°C° 0 mm 1 m/s 760 mmHg 87%
    11:00 0°C° 0 mm 1 m/s 760 mmHg 86%
    12:00 0°C° 0 mm 1 m/s 760 mmHg 87%
    13:00 0°C° 0 mm 1 m/s 761 mmHg 88%
    14:00 0°C° 0 mm 1 m/s 761 mmHg 89%
    15:00 -1°C° 0 mm 1 m/s 761 mmHg 91%
    16:00 -1°C° 0 mm 1 m/s 762 mmHg 93%
    17:00 -2°C° 0 mm 1 m/s 762 mmHg 94%
    18:00 -2°C° 0 mm 1 m/s 762 mmHg 95%
    19:00 -2°C° 0 mm 1 m/s 762 mmHg 95%
    20:00 -3°C° 0 mm 1 m/s 763 mmHg 95%
    21:00 -3°C° 0 mm 1 m/s 763 mmHg 95%
    22:00 -3°C° 0 mm 1 m/s 763 mmHg 95%
    23:00 -3°C° 0 mm 1 m/s 764 mmHg 96%

    Après-demain, 16 Novembre, Vendredi

    Heure Température Précipitation Vent Pression Humidité
    00:00 -3°C° 0 mm 1 m/s 764 mmHg 96%
    01:00 -3°C° 0 mm 1 m/s 764 mmHg 96%
    02:00 -3°C° 0 mm 1 m/s 764 mmHg 96%
    03:00 -3°C° 0 mm 1 m/s 765 mmHg 96%
    04:00 -3°C° 0 mm 1 m/s 765 mmHg 96%
    05:00 -3°C° 0 mm 1 m/s 765 mmHg 96%
    06:00 -3°C° 0 mm 1 m/s 765 mmHg 96%
    07:00 -5°C° 0 mm 2 m/s 765 mmHg 96%
    08:00 -5°C° 0 mm 2 m/s 765 mmHg 96%
    09:00 -3°C° 0 mm 2 m/s 766 mmHg 93%
    10:00 -2°C° 0 mm 2 m/s 766 mmHg 91%
    11:00 -1°C° 0 mm 2 m/s 766 mmHg 89%
    12:00 -1°C° 0 mm 2 m/s 766 mmHg 90%
    13:00 -1°C° 0 mm 2 m/s 766 mmHg 90%
    14:00 +1°C° 0 mm 2 m/s 766 mmHg 91%
    15:00 -1°C° 0 mm 2 m/s 766 mmHg 93%
    16:00 -2°C° 0 mm 2 m/s 766 mmHg 94%
    17:00 -2°C° 0 mm 2 m/s 766 mmHg 95%
    18:00 -2°C° 0 mm 2 m/s 766 mmHg 95%
    19:00 -2°C° 0 mm 3 m/s 765 mmHg 95%
    20:00 -2°C° 0 mm 3 m/s 765 mmHg 95%
    21:00 -2°C° 0 mm 3 m/s 765 mmHg 94%
    22:00 -1°C° 0 mm 3 m/s 765 mmHg 93%
    23:00 -1°C° 0 mm 3 m/s 765 mmHg 93%

    17 Novembre, Samedi

    Heure Température Précipitation Vent Pression Humidité
    00:00 -1°C° 0.1 mm 3 m/s 764 mmHg 92%
    01:00 -1°C° 0.1 mm 3 m/s 764 mmHg 92%
    02:00 0°C° 0.1 mm 3 m/s 764 mmHg 92%
    03:00 0°C° 0 mm 3 m/s 763 mmHg 92%
    04:00 0°C° 0 mm 3 m/s 763 mmHg 92%
    05:00 0°C° 0 mm 3 m/s 762 mmHg 92%
    06:00 0°C° 0 mm 3 m/s 762 mmHg 93%
    07:00 +1°C° 0 mm 3 m/s 761 mmHg 93%
    08:00 +1°C° 0 mm 3 m/s 761 mmHg 93%
    09:00 +1°C° 0 mm 3 m/s 760 mmHg 93%
    10:00 0°C° 0 mm 4 m/s 760 mmHg 93%
    11:00 +1°C° 0 mm 4 m/s 759 mmHg 93%
    12:00 +1°C° 0.1 mm 4 m/s 759 mmHg 94%
    13:00 +1°C° 0.1 mm 4 m/s 758 mmHg 94%
    14:00 +1°C° 0.1 mm 4 m/s 757 mmHg 95%
    15:00 +1°C° 0.1 mm 4 m/s 757 mmHg 95%
    16:00 +1°C° 0.1 mm 4 m/s 756 mmHg 95%
    17:00 +1°C° 0.1 mm 4 m/s 755 mmHg 96%
    18:00 +1°C° 0 mm 4 m/s 755 mmHg 95%
    19:00 +1°C° 0 mm 4 m/s 754 mmHg 95%
    20:00 +1°C° 0 mm 4 m/s 754 mmHg 95%
    21:00 +2°C° 0.1 mm 3 m/s 753 mmHg 95%
    22:00 +2°C° 0.1 mm 3 m/s 753 mmHg 95%
    23:00 +1°C° 0.1 mm 3 m/s 752 mmHg 95%

    18 Novembre, Dimanche

    Heure Température Précipitation Vent Pression Humidité
    00:00 +1°C° 0.1 mm 3 m/s 752 mmHg 94%
    01:00 0°C° 0.1 mm 4 m/s 752 mmHg 94%
    02:00 0°C° 0.1 mm 4 m/s 751 mmHg 94%
    03:00 0°C° 0.1 mm 4 m/s 751 mmHg 94%
    04:00 0°C° 0.1 mm 4 m/s 750 mmHg 93%
    05:00 0°C° 0.1 mm 4 m/s 750 mmHg 93%
    06:00 0°C° 0.2 mm 4 m/s 750 mmHg 92%
    07:00 0°C° 0.2 mm 4 m/s 750 mmHg 92%
    08:00 0°C° 0.2 mm 4 m/s 750 mmHg 91%
    09:00 +1°C° 0.1 mm 4 m/s 750 mmHg 89%
    10:00 +1°C° 0.1 mm 4 m/s 750 mmHg 87%
    11:00 +1°C° 0.1 mm 5 m/s 750 mmHg 85%
    12:00 +1°C° 0.2 mm 5 m/s 750 mmHg 86%
    13:00 +1°C° 0.2 mm 5 m/s 750 mmHg 86%
    14:00 +1°C° 0.2 mm 5 m/s 751 mmHg 87%
    15:00 0°C° 0.1 mm 5 m/s 751 mmHg 87%
    16:00 0°C° 0.1 mm 5 m/s 751 mmHg 87%
    17:00 0°C° 0.1 mm 5 m/s 752 mmHg 86%
    18:00 0°C° 0.1 mm 5 m/s 752 mmHg 86%
    19:00 0°C° 0.1 mm 5 m/s 753 mmHg 86%
    20:00 0°C° 0.1 mm 5 m/s 754 mmHg 86%
    21:00 -1°C° 0.1 mm 5 m/s 754 mmHg 86%
    22:00 -1°C° 0.1 mm 5 m/s 755 mmHg 86%
    23:00 -1°C° 0.1 mm 5 m/s 755 mmHg 86%

    19 Novembre, Lundi

    Heure Température Précipitation Vent Pression Humidité
    00:00 -1°C° 0.1 mm 5 m/s 756 mmHg 86%
    01:00 -1°C° 0.1 mm 5 m/s 756 mmHg 87%
    02:00 -2°C° 0.1 mm 5 m/s 757 mmHg 87%
    03:00 -2°C° 0.1 mm 5 m/s 757 mmHg 87%
    04:00 -2°C° 0.1 mm 5 m/s 757 mmHg 87%
    05:00 -2°C° 0.1 mm 5 m/s 758 mmHg 87%
    06:00 -2°C° 0 mm 5 m/s 758 mmHg 87%
    07:00 -2°C° 0 mm 4 m/s 758 mmHg 87%
    08:00 -2°C° 0 mm 4 m/s 759 mmHg 88%
    09:00 -2°C° 0 mm 4 m/s 759 mmHg 87%
    10:00 -1°C° 0 mm 4 m/s 760 mmHg 87%
    11:00 -1°C° 0 mm 4 m/s 760 mmHg 87%
    12:00 -1°C° 0 mm 4 m/s 760 mmHg 88%
    13:00 0°C° 0 mm 3 m/s 760 mmHg 88%
    14:00 0°C° 0 mm 3 m/s 761 mmHg 89%
    15:00 0°C° 0 mm 3 m/s 761 mmHg 90%
    16:00 0°C° 0 mm 3 m/s 761 mmHg 91%
    17:00 -1°C° 0 mm 2 m/s 761 mmHg 92%
    18:00 -1°C° 0 mm 2 m/s 761 mmHg 93%
    19:00 -1°C° 0 mm 2 m/s 761 mmHg 94%
    20:00 -2°C° 0 mm 2 m/s 761 mmHg 95%
    21:00 -2°C° 0 mm 2 m/s 761 mmHg 95%
    22:00 0°C° 0 mm 1 m/s 761 mmHg 96%
    23:00 0°C° 0 mm 1 m/s 762 mmHg 96%
    Voir plus